Rouyn-Noranda Airport

Airport
ICAO code: 
CYUY
IATA Code: 
YUY
Summary
ICAO Region: 
NAM
Territory: 
Location: 
Rouyn-Noranda, Quebec,
Serving: 
Rouyn-Noranda
Elevation: 
988 ft
Coordinates: 
Aerial View: 
48° 12' 29.506" N, 78° 49' 45.973" W
Metar
Observation
CYUY 241700Z 25004KT 6SM -SN FEW017 SCT030 BKN055 BKN220 M17/M20 A2962 RMK SC2SC2SC2CS1 SLP065
Station
Rouyn Airport
Date/Time
2022-01-24 17:00:00
Wind direction
250°
Wind speed
04 kts
Lowest cloud amount
few clouds
Temperature
-17°C
Dew point
-20°C
Humidity
77%
Weather condition
light snow

Description

Rouyn-Noranda Airport, is located 7.5 nm east southeast of Rouyn-Noranda, Quebec, Canada.

Climatology

Humid Continental climate (Köppen climate classification Dfb) - Variable weather patterns and a large seasonal temperature variance. Summers are often warm and humid with frequent thunderstorms and winters can be very cold with frequent snowfall and persistent snow cover.

Runways

Designator Length Width Surface Rops
8/26 2281 46 ASP No/No
Airport map: 
Aerial View: 

Accidents and Serious Incidents at or in the vicinity of CYUY

SKYbrary Partners:

Safety knowledge contributed by: